30P/Reinmuth 1 (2017)

Japanese version
Home page
Updated on October 22, 2018

---------------------------------------------------------------------

* Profile

* Pictures

* Orbital Elements

Epoch 2017 Sept. 4.0 TT = JDT 2458000.5
T 2017 Aug. 19.17731 TT                                 MPCW
q   1.8766889            (2000.0)            P               Q
n   0.13470756     Peri.   13.29169     -0.67993498     -0.72291336
a   3.7688432      Node   119.70385     +0.65917142     -0.67596254
e   0.5020517      Incl.    8.12887     +0.32121871     -0.14307661
P   7.32
From 2617 observations 1979 Oct. 23-2018 Apr. 25, mean residual 0".8.
     Nongravitational parameters A1 = +0.16, A2 = -0.0119.

* Finding Charts

* Magnitudes Graph

        m1 = 10.5 + 5 log d + 13.0 log r

---------------------------------------------------------------------

The orbital elements are published on M.P.E.C. 2018-H105.
The charts are made with StellaNavigator Ver.10 (AstroArts).
The magnitudes graphs are made with Comet for Windows.

---------------------------------------------------------------------

Copyright(C) Seiichi Yoshida (comet@aerith.net). All rights reserved.